Weather in Hithadhoo

Maldives     0°39′31″N   73°06′52″E
temp.,
°C
wind,
m/s
gust,
m/s
humid.,
%
clouds,
%
prec.,
mm/h
press.,
hPa
HPBL,
m
15 may, sat
sat1523:00+27w668299 7.3 1008517
02:00+27w91079100 4.1 1006909
05:00+27w121377100 5.1 10061002
08:00+27w141583100 2.4 10081061
11:00+27wsw121485100 4.4 1008962
14:00+28sw131581100 0.2 1005818
17:00+28sw91079100 0.2 10051026
20:00+28sw91078100 0.8 1007951
16 may, sun
sun1623:00+29wsw8878100 2.7 1007924
02:00+28wsw8979100 2.6 1006843
05:00+29wsw897596 3.4 1005990
08:00+29wsw887237 0.3 10081097
11:00+29w787290 0.3 10071036
14:00+29w8973100 0.1 10051017
17:00+29w787410 0.5 10061015
20:00+29w787496 1.0 1008971
17 may, mon
mon1723:00+29w777597 1.9 1008829
02:00+29w677557 1.0 1006892
05:00+29w677661 2.6 1007814
08:00+29w677451 0.1 1008946
11:00+29w677313 0.1 1008987
14:00+30w787482 0.0 10061024
17:00+30w7872100 0.1 10061102
20:00+30w6773100 0.0 10081027
18 may, tue
tue1823:00+29w6777100 0.9 1009844
02:00+29w787699 1.3 1007871
05:00+29w677692 2.1 1007927
08:00+30w7872100 0.1 10081095
11:00+30w7870100 0.1 10081132
14:00+30wnw7970100 0.0 10061155
17:00+30wnw6771100 0.0 10071223
20:00+30wnw6770100 0.0 10091206
19 may, wed
wed1923:00+29wnw557396 0.1 1010833
02:00+29wnw5674100 0.6 1008910
05:00+29wnw557675 0.6 1007741
08:00+29wnw4474100 0.0 1009841
11:00+29nw457395 0.0 1009898
14:00+30nw347132 0.0 1007947
17:00+30nw4571100 0.0 1007925
20:00+30wnw457376 0.0 1009920